Temp: 3.1°C   Baro: 999.3mb
  Wind: 6.0mph   Dir: WSW (257°)
  Rain: 6.0mm (0.0mm/hr)
  Solar: 0W/m2  Hum: 81%
 
Bath Spa Weather Historical Data
Daily Summary for July 14, 2019 Units:  English    Metric   Both
Next Day »
Daily Weekly Monthly Yearly Custom
  High: Low: Average:
Temperature: 76.1 °F 56.8 °F 65.8 °F
Dew Point: 60.1 °F 50.5 °F 55.4 °F
Humidity: 82% 55% 70%
Wind Speed: 14mph 0mph 2.7mph
Wind Gust: 15mph - -
Wind direction- - East
Pressure: 30.2 in 30.2 in -
Precipitation: 0 in    
Historical Graphs
 
 
Tabular Data for July 14, 2019
Time Temperature Dew Point Pressure Wind direction Wind Speed Wind Gust Humidity Rainfall Rate (Hourly) solar
00:04 61.5 °F 54.9 °F 30.2 in NNE 4.9 mph 11 mph 79% 0 in 0.00 W/m2
00:09 61.3 °F 54.9 °F 30.2 in NNW 8.9 mph 10 mph 79% 0 in 0.00 W/m2
00:14 61.2 °F 54.9 °F 30.2 in NE 2 mph 10 mph 80% 0 in 0.00 W/m2
00:19 61 °F 54.7 °F 30.2 in NNE 4 mph 10 mph 80% 0 in 0.00 W/m2
00:24 60.8 °F 54.7 °F 30.2 in NE 2 mph 7 mph 80% 0 in 0.00 W/m2
00:29 60.6 °F 54.5 °F 30.2 in NNW 4 mph 15 mph 80% 0 in 0.00 W/m2
00:34 60.4 °F 54.5 °F 30.2 in North 2 mph 11 mph 81% 0 in 0.00 W/m2
00:39 60.4 °F 54.5 °F 30.2 in NNE 2.9 mph 13 mph 81% 0 in 0.00 W/m2
00:44 60.3 °F 54.3 °F 30.2 in NE 4.9 mph 11 mph 81% 0 in 0.00 W/m2
00:49 60.3 °F 54.3 °F 30.2 in NNE 11 mph 12 mph 81% 0 in 0.00 W/m2
00:54 60.1 °F 54.3 °F 30.2 in Calm   7 mph 81% 0 in 0.00 W/m2
00:59 59.9 °F 54.1 °F 30.2 in North 4.9 mph 7 mph 81% 0 in 0.00 W/m2
01:04 59.9 °F 54.1 °F 30.2 in Calm   8 mph 81% 0 in 0.00 W/m2
01:09 59.7 °F 54 °F 30.2 in Calm   6 mph 81% 0 in 0.00 W/m2
01:14 59.7 °F 54 °F 30.2 in Calm   5 mph 81% 0 in 0.00 W/m2
01:19 59.7 °F 54 °F 30.2 in Calm   1 mph 81% 0 in 0.00 W/m2
01:24 59.5 °F 53.8 °F 30.2 in Calm   2 mph 81% 0 in 0.00 W/m2
01:29 59.5 °F 53.8 °F 30.2 in Calm   1 mph 81% 0 in 0.00 W/m2
01:34 59.5 °F 53.8 °F 30.2 in NE 0.9 mph 4 mph 81% 0 in 0.00 W/m2
01:39 59.5 °F 53.8 °F 30.2 in NE 0.9 mph 1 mph 81% 0 in 0.00 W/m2
01:44 59.4 °F 53.6 °F 30.2 in NE 4.9 mph 7 mph 81% 0 in 0.00 W/m2
01:49 59 °F 53.2 °F 30.2 in NNE 2 mph 10 mph 81% 0 in 0.00 W/m2
01:54 59 °F 52.9 °F 30.2 in Calm   4 mph 80% 0 in 0.00 W/m2
01:59 59 °F 52.9 °F 30.2 in NE 0.9 mph 7 mph 80% 0 in 0.00 W/m2
02:04 59 °F 52.9 °F 30.2 in Calm   7 mph 80% 0 in 0.00 W/m2
02:09 58.8 °F 52.3 °F 30.2 in NNE 2.9 mph 8 mph 79% 0 in 0.00 W/m2
02:14 58.8 °F 52 °F 30.2 in NNE 4 mph 5 mph 78% 0 in 0.00 W/m2
02:19 58.8 °F 52 °F 30.2 in NE 4 mph 6 mph 78% 0 in 0.00 W/m2
02:24 58.8 °F 51.6 °F 30.2 in NNE 0.9 mph 4 mph 77% 0 in 0.00 W/m2
02:29 58.8 °F 51.6 °F 30.2 in ENE 2.9 mph 5 mph 77% 0 in 0.00 W/m2
02:34 58.8 °F 51.6 °F 30.2 in NE 0.9 mph 10 mph 77% 0 in 0.00 W/m2
02:39 58.8 °F 51.3 °F 30.2 in ESE 2 mph 5 mph 76% 0 in 0.00 W/m2
02:44 58.8 °F 51.3 °F 30.2 in ENE 4.9 mph 5 mph 76% 0 in 0.00 W/m2
02:49 58.8 °F 51.3 °F 30.2 in Calm   3 mph 76% 0 in 0.00 W/m2
02:54 58.6 °F 51.1 °F 30.2 in ENE 2 mph 7 mph 76% 0 in 0.00 W/m2
02:59 58.8 °F 51.3 °F 30.2 in Calm   3 mph 76% 0 in 0.00 W/m2
03:04 58.6 °F 51.1 °F 30.2 in NNE 6 mph 6 mph 76% 0 in 0.00 W/m2
03:09 58.6 °F 51.1 °F 30.2 in NE 2 mph 4 mph 76% 0 in 0.00 W/m2
03:14 58.6 °F 51.1 °F 30.2 in Calm   4 mph 76% 0 in 0.00 W/m2
03:19 58.6 °F 51.1 °F 30.2 in NE 2.9 mph 3 mph 76% 0 in 0.00 W/m2
03:24 58.5 °F 50.9 °F 30.2 in NE 0.9 mph 2 mph 76% 0 in 0.00 W/m2
03:29 58.5 °F 50.9 °F 30.2 in Calm     76% 0 in 0.00 W/m2
03:34 58.5 °F 50.9 °F 30.2 in ENE 4.9 mph 8 mph 76% 0 in 0.00 W/m2
03:39 58.5 °F 50.5 °F 30.2 in NE 2 mph 3 mph 75% 0 in 0.00 W/m2
03:44 58.6 °F 50.7 °F 30.2 in NNE 4.9 mph 8 mph 75% 0 in 0.00 W/m2
03:49 58.6 °F 50.7 °F 30.2 in Calm   2 mph 75% 0 in 0.00 W/m2
03:54 58.6 °F 50.7 °F 30.2 in NE 2 mph 5 mph 75% 0 in 0.00 W/m2
03:59 58.6 °F 50.7 °F 30.2 in Calm   3 mph 75% 0 in 0.00 W/m2
04:04 58.6 °F 50.7 °F 30.2 in NE 0.9 mph 1 mph 75% 0 in 0.00 W/m2
04:09 58.6 °F 50.7 °F 30.2 in WNW 0.9 mph 5 mph 75% 0 in 0.00 W/m2
04:14 58.5 °F 50.9 °F 30.2 in WNW 2.9 mph 4 mph 76% 0 in 0.00 W/m2
04:19 58.1 °F 50.9 °F 30.2 in WNW 2 mph 4 mph 77% 0 in 0.00 W/m2
04:24 57.9 °F 51.1 °F 30.2 in WNW 0.9 mph 2 mph 78% 0 in 0.00 W/m2
04:29 57.7 °F 51.3 °F 30.2 in Calm   2 mph 79% 0 in 0.00 W/m2
04:34 57.7 °F 51.3 °F 30.2 in Calm     79% 0 in 0.00 W/m2
04:39 57.7 °F 51.3 °F 30.2 in Calm     79% 0 in 0.00 W/m2
04:44 57.6 °F 51.4 °F 30.2 in Calm     80% 0 in 0.00 W/m2
04:49 57.6 °F 51.4 °F 30.2 in Calm   2 mph 80% 0 in 0.00 W/m2
04:54 57.2 °F 51.1 °F 30.2 in WNW 2 mph 3 mph 80% 0 in 0.00 W/m2
04:59 57.2 °F 51.1 °F 30.2 in WNW 2 mph 2 mph 80% 0 in 0.00 W/m2
05:04 57.2 °F 51.1 °F 30.2 in Calm     80% 0 in 0.00 W/m2
05:09 57.2 °F 51.1 °F 30.2 in Calm     80% 0 in 0.00 W/m2
05:14 57.2 °F 51.4 °F 30.2 in Calm     81% 0 in 0.00 W/m2
05:19 57 °F 51.3 °F 30.2 in Calm     81% 0 in 5.00 W/m2
05:24 57 °F 51.3 °F 30.2 in Calm     81% 0 in 7.00 W/m2
05:29 57 °F 51.3 °F 30.2 in WNW 0.9 mph 3 mph 81% 0 in 9.00 W/m2
05:34 56.8 °F 51.1 °F 30.2 in Calm     81% 0 in 12.00 W/m2
05:39 57 °F 51.3 °F 30.2 in WNW 2 mph 2 mph 81% 0 in 14.00 W/m2
05:44 56.8 °F 51.1 °F 30.2 in Calm   1 mph 81% 0 in 19.00 W/m2
05:49 56.8 °F 51.1 °F 30.2 in Calm     81% 0 in 19.00 W/m2
05:54 56.8 °F 51.1 °F 30.2 in SE 2 mph 2 mph 81% 0 in 19.00 W/m2
05:59 57 °F 51.3 °F 30.2 in SE 2.9 mph 3 mph 81% 0 in 23.00 W/m2
06:04 57 °F 51.3 °F 30.2 in Calm   2 mph 81% 0 in 23.00 W/m2
06:09 57.2 °F 51.4 °F 30.2 in Calm     81% 0 in 25.00 W/m2
06:14 57.2 °F 51.4 °F 30.2 in Calm     81% 0 in 26.00 W/m2
06:19 57.4 °F 51.6 °F 30.2 in Calm     81% 0 in 26.00 W/m2
06:24 57.4 °F 51.6 °F 30.2 in Calm     81% 0 in 30.00 W/m2
06:29 57.6 °F 51.8 °F 30.2 in Calm     81% 0 in 32.00 W/m2
06:34 57.4 °F 51.3 °F 30.2 in Calm   1 mph 80% 0 in 37.00 W/m2
06:39 57.6 °F 51.4 °F 30.2 in Calm   2 mph 80% 0 in 40.00 W/m2
06:44 57.6 °F 51.4 °F 30.2 in SE 0.9 mph 3 mph 80% 0 in 42.00 W/m2
06:49 57.6 °F 51.8 °F 30.2 in Calm   1 mph 81% 0 in 46.00 W/m2
06:54 57.6 °F 51.8 °F 30.2 in Calm   1 mph 81% 0 in 51.00 W/m2
06:59 57.4 °F 51.6 °F 30.2 in SE 0.9 mph 2 mph 81% 0 in 49.00 W/m2
07:04 57.2 °F 51.4 °F 30.2 in Calm   1 mph 81% 0 in 53.00 W/m2
07:09 57.2 °F 51.4 °F 30.2 in Calm   2 mph 81% 0 in 53.00 W/m2
07:14 57.2 °F 51.4 °F 30.2 in Calm     81% 0 in 47.00 W/m2
07:19 57.4 °F 51.6 °F 30.2 in Calm   1 mph 81% 0 in 49.00 W/m2
07:24 57.4 °F 51.6 °F 30.2 in Calm     81% 0 in 53.00 W/m2
07:29 57.4 °F 51.6 °F 30.2 in SE 2 mph 2 mph 81% 0 in 58.00 W/m2
07:34 57.6 °F 52.2 °F 30.2 in ESE 2 mph 5 mph 82% 0 in 65.00 W/m2
07:39 57.6 °F 51.8 °F 30.2 in Calm   1 mph 81% 0 in 153.00 W/m2
07:44 57.7 °F 52.3 °F 30.2 in Calm   1 mph 82% 0 in 216.00 W/m2
07:49 58.1 °F 52.7 °F 30.2 in Calm   3 mph 82% 0 in 243.00 W/m2
07:54 58.5 °F 52.7 °F 30.2 in ESE 2.9 mph 4 mph 81% 0 in 253.00 W/m2
07:59 58.6 °F 52.9 °F 30.2 in Calm   4 mph 81% 0 in 322.00 W/m2
08:04 59 °F 53.2 °F 30.2 in ESE 2.9 mph 5 mph 81% 0 in 346.00 W/m2
08:09 59.2 °F 53.1 °F 30.2 in SSE 4 mph 4 mph 80% 0 in 325.00 W/m2
08:14 59.5 °F 53.4 °F 30.2 in Calm   1 mph 80% 0 in 290.00 W/m2
08:19 59.7 °F 53.2 °F 30.2 in ESE 2.9 mph 6 mph 79% 0 in 251.00 W/m2
08:24 59.9 °F 53.4 °F 30.2 in ESE 0.9 mph 4 mph 79% 0 in 336.00 W/m2
08:29 60.1 °F 53.6 °F 30.2 in ESE 2 mph 5 mph 79% 0 in 353.00 W/m2
08:34 60.1 °F 53.6 °F 30.2 in ESE 2 mph 6 mph 79% 0 in 360.00 W/m2
08:39 60.1 °F 53.6 °F 30.2 in SE 0.9 mph 4 mph 79% 0 in 378.00 W/m2
08:44 60.4 °F 54 °F 30.2 in SE 7 mph 8 mph 79% 0 in 394.00 W/m2
08:49 61.7 °F 54.9 °F 30.2 in SE 6 mph 6 mph 78% 0 in 403.00 W/m2
08:54 62.4 °F 55 °F 30.2 in SE 4 mph 4 mph 77% 0 in 323.00 W/m2
08:59 62.1 °F 54.3 °F 30.2 in SE 4 mph 8 mph 76% 0 in 315.00 W/m2
09:04 62.6 °F 55.6 °F 30.2 in ESE 6 mph 7 mph 78% 0 in 257.00 W/m2
09:09 63 °F 55.2 °F 30.2 in NNE 4 mph 6 mph 76% 0 in 466.00 W/m2
09:14 63.7 °F 55.6 °F 30.2 in East 2 mph 8 mph 75% 0 in 471.00 W/m2
09:19 64.2 °F 55.8 °F 30.2 in ESE 4 mph 6 mph 74% 0 in 485.00 W/m2
09:24 64.2 °F 55.8 °F 30.2 in ESE 4 mph 7 mph 74% 0 in 506.00 W/m2
09:29 64.2 °F 55.8 °F 30.2 in SE 2.9 mph 10 mph 74% 0 in 515.00 W/m2
09:34 63.9 °F 55.8 °F 30.2 in SE 6 mph 8 mph 75% 0 in 531.00 W/m2
09:39 64.2 °F 55.8 °F 30.2 in SE 2.9 mph 10 mph 74% 0 in 540.00 W/m2
09:44 64 °F 55.9 °F 30.2 in SSE 2 mph 7 mph 75% 0 in 554.00 W/m2
09:49 64.9 °F 56.8 °F 30.2 in ESE 4 mph 9 mph 75% 0 in 587.00 W/m2
09:54 65.7 °F 56.8 °F 30.2 in South 6 mph 9 mph 73% 0 in 592.00 W/m2
09:59 65.1 °F 56.3 °F 30.2 in SE 0.9 mph 6 mph 73% 0 in 642.00 W/m2
10:04 65.5 °F 56.3 °F 30.2 in SE 4.9 mph 8 mph 72% 0 in 645.00 W/m2
10:09 65.7 °F 56.3 °F 30.2 in Calm   8 mph 72% 0 in 635.00 W/m2
10:14 65.7 °F 56.8 °F 30.2 in NNE 6 mph 6 mph 73% 0 in 633.00 W/m2
10:19 66.6 °F 56.5 °F 30.2 in ESE 8.1 mph 8 mph 70% 0 in 635.00 W/m2
10:24 66.7 °F 56.7 °F 30.2 in East 0.9 mph 9 mph 70% 0 in 638.00 W/m2
10:29 66.9 °F 56.8 °F 30.2 in ESE 4.9 mph 9 mph 70% 0 in 650.00 W/m2
10:34 67.3 °F 56.3 °F 30.2 in ESE 4.9 mph 10 mph 68% 0 in 661.00 W/m2
10:39 66.4 °F 56.3 °F 30.2 in SE 4 mph 7 mph 70% 0 in 694.00 W/m2
10:44 67.6 °F 57.6 °F 30.2 in Calm   5 mph 70% 0 in 701.00 W/m2
10:49 69.3 °F 57.9 °F 30.2 in East 6.9 mph 7 mph 67% 0 in 700.00 W/m2
10:54 69.3 °F 56.5 °F 30.2 in SSE 2 mph 5 mph 64% 0 in 729.00 W/m2
10:59 69.6 °F 57.4 °F 30.2 in ESE 4 mph 8 mph 65% 0 in 731.00 W/m2
11:04 70.3 °F 57.6 °F 30.2 in ESE 4.9 mph 7 mph 64% 0 in 809.00 W/m2
11:09 70.5 °F 58.1 °F 30.2 in NNE 2.9 mph 7 mph 65% 0 in 833.00 W/m2
11:14 69.6 °F 59 °F 30.2 in SSE 0.9 mph 9 mph 69% 0 in 853.00 W/m2
11:19 70.2 °F 58.6 °F 30.2 in South 4.9 mph 10 mph 67% 0 in 912.00 W/m2
11:24 70 °F 58.5 °F 30.2 in SSE 2 mph 8 mph 67% 0 in 916.00 W/m2
11:29 70.2 °F 58.6 °F 30.2 in NE 2 mph 9 mph 67% 0 in 313.00 W/m2
11:34 70.5 °F 59.4 °F 30.2 in East 2 mph 7 mph 68% 0 in 951.00 W/m2
11:39 70.2 °F 59.2 °F 30.2 in SE 2 mph 9 mph 68% 0 in 838.00 W/m2
11:44 71.2 °F 59.7 °F 30.2 in NE 2.9 mph 7 mph 67% 0 in 858.00 W/m2
11:49 71.6 °F 59.2 °F 30.2 in SE 2 mph 6 mph 65% 0 in 283.00 W/m2
11:54 70.5 °F 59 °F 30.2 in ESE 2 mph 11 mph 67% 0 in 977.00 W/m2
11:59 70.5 °F 59 °F 30.2 in SSE 2.9 mph 7 mph 67% 0 in 954.00 W/m2
12:04 72.1 °F 60.1 °F 30.2 in East 6.9 mph 8 mph 66% 0 in 1028.00 W/m2
12:09 72.1 °F 59.4 °F 30.2 in SE 4.9 mph 6 mph 64% 0 in 376.00 W/m2
12:14 71.4 °F 59.5 °F 30.2 in East 0.9 mph 4 mph 66% 0 in 940.00 W/m2
12:19 72.9 °F 59.9 °F 30.2 in East 2 mph 8 mph 64% 0 in 1004.00 W/m2
12:24 72 °F 59.2 °F 30.2 in East 11 mph 11 mph 64% 0 in 970.00 W/m2
12:29 71.4 °F 59 °F 30.2 in East 4.9 mph 10 mph 65% 0 in 334.00 W/m2
12:34 70.7 °F 58.8 °F 30.2 in NE 2 mph 7 mph 66% 0 in 406.00 W/m2
12:39 69.6 °F 58.1 °F 30.2 in NE 0.9 mph 11 mph 67% 0 in 373.00 W/m2
12:44 69.6 °F 58.1 °F 30.2 in ENE 6.9 mph 10 mph 67% 0 in 506.00 W/m2
12:49 69.4 °F 58.5 °F 30.2 in ENE 8.9 mph 12 mph 68% 0 in 281.00 W/m2
12:54 70.3 °F 59.4 °F 30.2 in East 8.1 mph 8 mph 68% 0 in 241.00 W/m2
12:59 70.2 °F 58.3 °F 30.2 in NNE 4 mph 11 mph 66% 0 in 260.00 W/m2
13:04 70.3 °F 58.8 °F 30.2 in NE 4.9 mph 9 mph 67% 0 in 969.00 W/m2
13:09 70.9 °F 58.5 °F 30.2 in East 6 mph 8 mph 65% 0 in 304.00 W/m2
13:14 71.6 °F 58.3 °F 30.2 in ENE 4.9 mph 7 mph 63% 0 in 341.00 W/m2
13:19 71.6 °F 57.9 °F 30.2 in ENE 0.9 mph 6 mph 62% 0 in 1002.00 W/m2
13:24 72 °F 57.7 °F 30.2 in East 2.9 mph 5 mph 61% 0 in 336.00 W/m2
13:29 71.2 °F 57.6 °F 30.2 in SSE 2.9 mph 9 mph 62% 0 in 1002.00 W/m2
13:34 72.3 °F 58.6 °F 30.2 in Calm   7 mph 62% 0 in 946.00 W/m2
13:39 73.2 °F 59 °F 30.2 in NE 2 mph 6 mph 61% 0 in 1042.00 W/m2
13:44 73.4 °F 58.6 °F 30.2 in NE 2.9 mph 5 mph 60% 0 in 350.00 W/m2
13:49 74.1 °F 58.8 °F 30.2 in NE 6 mph 11 mph 59% 0 in 995.00 W/m2
13:54 73.2 °F 58.1 °F 30.2 in Calm   8 mph 59% 0 in 250.00 W/m2
13:59 73 °F 57.9 °F 30.2 in ESE 2.9 mph 5 mph 59% 0 in 267.00 W/m2
14:04 73.9 °F 58.6 °F 30.2 in Calm   5 mph 59% 0 in 817.00 W/m2
14:09 74.5 °F 58.3 °F 30.2 in NNE 4 mph 7 mph 57% 0 in 963.00 W/m2
14:14 74.5 °F 57.7 °F 30.2 in NNE 10 mph 11 mph 56% 0 in 926.00 W/m2
14:19 73 °F 57.9 °F 30.2 in NE 8.1 mph 11 mph 59% 0 in 900.00 W/m2
14:24 73.6 °F 58.8 °F 30.2 in NE 2 mph 9 mph 60% 0 in 881.00 W/m2
14:29 74.5 °F 59.2 °F 30.2 in ESE 11 mph 11 mph 59% 0 in 888.00 W/m2
14:34 74.3 °F 58.6 °F 30.2 in ENE 8.1 mph 12 mph 58% 0 in 937.00 W/m2
14:39 74.7 °F 58.8 °F 30.2 in NNE 2 mph 7 mph 58% 0 in 914.00 W/m2
14:44 74.3 °F 59 °F 30.2 in NE 6.9 mph 12 mph 59% 0 in 888.00 W/m2
14:49 75 °F 58.8 °F 30.2 in NNE 6.9 mph 7 mph 57% 0 in 237.00 W/m2
14:54 73.4 °F 58.6 °F 30.2 in East 2.9 mph 6 mph 60% 0 in 830.00 W/m2
14:59 74.8 °F 59.5 °F 30.2 in NE 8.9 mph 9 mph 59% 0 in 867.00 W/m2
15:04 75.2 °F 59.4 °F 30.2 in Calm   5 mph 58% 0 in 257.00 W/m2
15:09 74.8 °F 59 °F 30.2 in NNE 8.1 mph 9 mph 58% 0 in 847.00 W/m2
15:14 74.3 °F 59 °F 30.2 in ENE 8.1 mph 8 mph 59% 0 in 830.00 W/m2
15:19 73.2 °F 58.5 °F 30.2 in Calm   15 mph 60% 0 in 854.00 W/m2
15:24 74.1 °F 58.8 °F 30.2 in East 4.9 mph 8 mph 59% 0 in 958.00 W/m2
15:29 75.2 °F 59.4 °F 30.2 in Calm   8 mph 58% 0 in 911.00 W/m2
15:34 75 °F 58.8 °F 30.2 in NE 8.1 mph 10 mph 57% 0 in 278.00 W/m2
15:39 73.6 °F 58.8 °F 30.2 in ENE 8.9 mph 10 mph 60% 0 in 868.00 W/m2
15:44 73.8 °F 59.5 °F 30.2 in ENE 6.9 mph 7 mph 61% 0 in 578.00 W/m2
15:49 75 °F 59.7 °F 30.2 in ENE 4.9 mph 10 mph 59% 0 in 784.00 W/m2
15:54 74.7 °F 59.4 °F 30.2 in North 2.9 mph 10 mph 59% 0 in 733.00 W/m2
15:59 74.7 °F 59.9 °F 30.2 in NE 14 mph 14 mph 60% 0 in 751.00 W/m2
16:04 75.6 °F 59.2 °F 30.2 in NNE 2.9 mph 7 mph 57% 0 in 729.00 W/m2
16:09 76.1 °F 59.7 °F 30.2 in SE 8.9 mph 12 mph 57% 0 in 747.00 W/m2
16:14 75.4 °F 58.6 °F 30.2 in East 2 mph 12 mph 56% 0 in 190.00 W/m2
16:19 74.5 °F 58.8 °F 30.2 in Calm   7 mph 58% 0 in 729.00 W/m2
16:24 74.3 °F 59 °F 30.2 in ENE 4 mph 8 mph 59% 0 in 390.00 W/m2
16:29 74.7 °F 58.8 °F 30.2 in NE 8.9 mph 9 mph 58% 0 in 253.00 W/m2
16:34 72.7 °F 57.9 °F 30.2 in NNE 4 mph 11 mph 60% 0 in 192.00 W/m2
16:39 71.8 °F 58.1 °F 30.2 in ENE 2.9 mph 12 mph 62% 0 in 687.00 W/m2
16:44 72.3 °F 58.1 °F 30.2 in East 8.1 mph 9 mph 61% 0 in 659.00 W/m2
16:49 72.9 °F 58.6 °F 30.2 in East 2 mph 7 mph 61% 0 in 624.00 W/m2
16:54 73 °F 57.9 °F 30.2 in NE 6.9 mph 14 mph 59% 0 in 617.00 W/m2
16:59 73 °F 58.3 °F 30.2 in ESE 6.9 mph 7 mph 60% 0 in 598.00 W/m2
17:04 73.4 °F 58.3 °F 30.2 in SSE 4 mph 7 mph 59% 0 in 582.00 W/m2
17:09 72.9 °F 58.1 °F 30.2 in ENE 2 mph 14 mph 60% 0 in 594.00 W/m2
17:14 73.2 °F 58.1 °F 30.2 in ENE 0.9 mph 13 mph 59% 0 in 577.00 W/m2
17:19 73 °F 57.9 °F 30.2 in NE 4 mph 10 mph 59% 0 in 571.00 W/m2
17:24 72.9 °F 57.2 °F 30.2 in NE 4.9 mph 11 mph 58% 0 in 575.00 W/m2
17:29 73.4 °F 57.7 °F 30.2 in East 4.9 mph 11 mph 58% 0 in 584.00 W/m2
17:34 73.4 °F 57.7 °F 30.2 in ESE 6.9 mph 9 mph 58% 0 in 575.00 W/m2
17:39 73.4 °F 57.7 °F 30.2 in NE 8.1 mph 8 mph 58% 0 in 313.00 W/m2
17:44 73 °F 56.8 °F 30.2 in East 4 mph 9 mph 57% 0 in 448.00 W/m2
17:49 72.5 °F 56.5 °F 30.2 in ESE 0.9 mph 9 mph 57% 0 in 476.00 W/m2
17:54 72.9 °F 56.7 °F 30.2 in ENE 4.9 mph 5 mph 57% 0 in 466.00 W/m2
17:59 73.2 °F 56.7 °F 30.2 in NE 2 mph 13 mph 56% 0 in 448.00 W/m2
18:04 73 °F 56.8 °F 30.2 in SE 2.9 mph 7 mph 57% 0 in 434.00 W/m2
18:09 73.8 °F 57 °F 30.2 in NE 6.9 mph 9 mph 56% 0 in 420.00 W/m2
18:14 73.4 °F 57.2 °F 30.2 in East 2.9 mph 11 mph 57% 0 in 408.00 W/m2
18:19 73.6 °F 56.8 °F 30.2 in East 0.9 mph 7 mph 56% 0 in 385.00 W/m2
18:24 73.8 °F 56.7 °F 30.2 in ESE 2 mph 6 mph 55% 0 in 373.00 W/m2
18:29 73.6 °F 56.8 °F 30.2 in East 6 mph 7 mph 56% 0 in 360.00 W/m2
18:34 73.9 °F 56.8 °F 30.2 in Calm   7 mph 55% 0 in 346.00 W/m2
18:39 73.8 °F 56.7 °F 30.2 in ESE 2 mph 3 mph 55% 0 in 336.00 W/m2
18:44 73.8 °F 57 °F 30.2 in NNE 4.9 mph 6 mph 56% 0 in 316.00 W/m2
18:49 73.4 °F 57.2 °F 30.2 in ENE 0.9 mph 5 mph 57% 0 in 306.00 W/m2
18:54 73.9 °F 56.8 °F 30.2 in ENE 6.9 mph 9 mph 55% 0 in 292.00 W/m2
18:59 74.1 °F 57.4 °F 30.2 in East 0.9 mph 6 mph 56% 0 in 281.00 W/m2
19:04 73.8 °F 57 °F 30.2 in SE 0.9 mph 7 mph 56% 0 in 267.00 W/m2
19:09 73.2 °F 57 °F 30.2 in SSE 2.9 mph 8 mph 57% 0 in 251.00 W/m2
19:14 72.5 °F 57.4 °F 30.2 in East 4 mph 5 mph 59% 0 in 237.00 W/m2
19:19 72.3 °F 57.7 °F 30.2 in ESE 2 mph 7 mph 60% 0 in 227.00 W/m2
19:24 72.9 °F 57.7 °F 30.2 in East 2 mph 6 mph 59% 0 in 213.00 W/m2
19:29 72.7 °F 57 °F 30.2 in ESE 2 mph 5 mph 58% 0 in 197.00 W/m2
19:34 72.9 °F 56.7 °F 30.2 in ESE 2 mph 3 mph 57% 0 in 179.00 W/m2
19:39 72.9 °F 56.7 °F 30.2 in NE 2.9 mph 4 mph 57% 0 in 165.00 W/m2
19:44 72.3 °F 56.3 °F 30.2 in ENE 4 mph 9 mph 57% 0 in 151.00 W/m2
19:49 72.3 °F 56.7 °F 30.2 in NE 2 mph 7 mph 58% 0 in 137.00 W/m2
19:54 72.3 °F 57.2 °F 30.2 in Calm   2 mph 59% 0 in 123.00 W/m2
19:59 72.1 °F 57 °F 30.2 in NE 2.9 mph 7 mph 59% 0 in 111.00 W/m2
20:04 72 °F 57.4 °F 30.2 in NE 0.9 mph 3 mph 60% 0 in 98.00 W/m2
20:09 71.6 °F 57 °F 30.2 in NE 2.9 mph 5 mph 60% 0 in 86.00 W/m2
20:14 71.6 °F 57.4 °F 30.2 in East 4.9 mph 7 mph 61% 0 in 74.00 W/m2
20:19 71.6 °F 57.4 °F 30.2 in ENE 0.9 mph 3 mph 61% 0 in 62.00 W/m2
20:24 72 °F 57.7 °F 30.2 in Calm   4 mph 61% 0 in 51.00 W/m2
20:29 71.8 °F 57.6 °F 30.2 in NNE 0.9 mph 5 mph 61% 0 in 42.00 W/m2
20:34 71.1 °F 57.4 °F 30.2 in ENE 2 mph 8 mph 62% 0 in 33.00 W/m2
20:39 70.5 °F 57.4 °F 30.2 in NNE 2.9 mph 8 mph 63% 0 in 25.00 W/m2
20:44 70.2 °F 57.4 °F 30.2 in NE 4 mph 7 mph 64% 0 in 21.00 W/m2
20:49 69.4 °F 57.2 °F 30.2 in NE 4 mph 12 mph 65% 0 in 18.00 W/m2
20:54 69.1 °F 57.2 °F 30.2 in NE 0.9 mph 3 mph 66% 0 in 16.00 W/m2
20:59 68.7 °F 57.4 °F 30.2 in East 2.9 mph 6 mph 67% 0 in 12.00 W/m2
21:04 68.4 °F 57 °F 30.2 in ESE 2.9 mph 10 mph 67% 0 in 11.00 W/m2
21:09 67.6 °F 56.3 °F 30.2 in SE 2 mph 7 mph 67% 0 in 9.00 W/m2
21:14 67.3 °F 56.3 °F 30.2 in ESE 4 mph 4 mph 68% 0 in 5.00 W/m2
21:19 67.1 °F 56.1 °F 30.2 in East 0.9 mph 5 mph 68% 0 in 5.00 W/m2
21:24 66.9 °F 56.5 °F 30.2 in East 2.9 mph 5 mph 69% 0 in 0.00 W/m2
21:29 66.7 °F 56.3 °F 30.2 in Calm     69% 0 in 0.00 W/m2
21:34 66.6 °F 56.1 °F 30.2 in East 0.9 mph 3 mph 69% 0 in 0.00 W/m2
21:39 66.4 °F 56.3 °F 30.2 in ENE 0.9 mph 1 mph 70% 0 in 0.00 W/m2
21:44 66.2 °F 56.1 °F 30.2 in Calm   5 mph 70% 0 in 0.00 W/m2
21:49 66 °F 55.9 °F 30.2 in Calm   5 mph 70% 0 in 0.00 W/m2
21:54 65.8 °F 55.8 °F 30.2 in ENE 2 mph 3 mph 70% 0 in 0.00 W/m2
21:59 65.3 °F 55.2 °F 30.2 in Calm   5 mph 70% 0 in 0.00 W/m2
22:04 65.1 °F 55.4 °F 30.2 in Calm   4 mph 71% 0 in 0.00 W/m2
22:09 64.9 °F 55.4 °F 30.2 in Calm   5 mph 71% 0 in 0.00 W/m2
22:14 64.8 °F 55.2 °F 30.2 in Calm   3 mph 71% 0 in 0.00 W/m2
22:19 64.6 °F 55 °F 30.2 in Calm     71% 0 in 0.00 W/m2
22:24 64.4 °F 55.2 °F 30.2 in ESE 0.9 mph 2 mph 72% 0 in 0.00 W/m2
22:29 64.2 °F 55 °F 30.2 in ENE 2.9 mph 3 mph 72% 0 in 0.00 W/m2
22:34 64 °F 54.9 °F 30.2 in East 0.9 mph 2 mph 72% 0 in 0.00 W/m2
22:39 63.9 °F 54.7 °F 30.2 in Calm   3 mph 72% 0 in 0.00 W/m2
22:44 63.7 °F 54.5 °F 30.2 in ENE 2 mph 2 mph 72% 0 in 0.00 W/m2
22:49 63.3 °F 54.5 °F 30.2 in Calm   4 mph 73% 0 in 0.00 W/m2
22:54 63.1 °F 54.3 °F 30.2 in NE 2 mph 7 mph 73% 0 in 0.00 W/m2
22:59 63.1 °F 54.3 °F 30.2 in Calm   3 mph 73% 0 in 0.00 W/m2
23:04 62.8 °F 54 °F 30.2 in Calm   2 mph 73% 0 in 0.00 W/m2
23:09 62.8 °F 54 °F 30.2 in ENE 2 mph 4 mph 73% 0 in 0.00 W/m2
23:14 62.6 °F 53.8 °F 30.2 in Calm   1 mph 73% 0 in 0.00 W/m2
23:19 62.6 °F 54.1 °F 30.2 in Calm     74% 0 in 0.00 W/m2
23:24 62.4 °F 54 °F 30.2 in Calm   1 mph 74% 0 in 0.00 W/m2
23:29 62.4 °F 54 °F 30.2 in ENE 4 mph 4 mph 74% 0 in 0.00 W/m2
23:34 62.4 °F 53.6 °F 30.2 in Calm   1 mph 73% 0 in 0.00 W/m2
23:39 62.1 °F 53.6 °F 30.2 in Calm   2 mph 74% 0 in 0.00 W/m2
23:44 61.9 °F 53.4 °F 30.2 in ENE 0.9 mph 5 mph 74% 0 in 0.00 W/m2
23:49 61.7 °F 53.2 °F 30.2 in Calm   2 mph 74% 0 in 0.00 W/m2
23:54 61.5 °F 53.2 °F 30.2 in Calm   1 mph 74% 0 in 0.00 W/m2
23:59 61.3 °F 53.1 °F 30.2 in ENE 0.9 mph 2 mph 74% 0 in 0.00 W/m2